Location: Observatoire
(46.1952°N, 5.3391°E)
Time: 03:15:11
(UTC+01:00)

Explorer 7 - Pass Details

Date: 25 February 2026
Orbit: 430 x 541 km, 50.2° (Epoch: 13 March)

Event Time Altitude Azimuth Distance (km) Brightness Sun altitude
Rises 19:23:43 0° 285° (WNW) 2,502 11.9 -11.9°
Reaches altitude 10° 19:26:21 10° 265° (W) 1,646 10.8 -12.4°
Maximum altitude 19:28:52 17° 223° (SW) 1,278 9.2 -12.8°
Drops below altitude 10° 19:31:25 10° 180° (S) 1,686 9.3 -13.3°
Sets 19:34:11 0° 161° (SSE) 2,590 10.0 -13.7°
